{"data":{"norad_id":67921,"intl_designator":"2026-036T","name":"STARLINK-36405","alt_names":[],"object_type":"PAYLOAD","status":"ACTIVE","operator":null,"country":"US","launch_date":"2026-02-22","launch_site_code":"AFETR","launch_vehicle":null,"mission":null,"orbit_class":"UNKNOWN","rcs_meters":null,"size_class":null,"mass_kg":null,"dimensions":null,"purposes":["comms"],"wikipedia_slug":null,"has_3d_model":false,"image_url":null,"decayed_at":null,"tle_current":{"epoch":"2026-09-19T22:03:33.359040Z","epoch_age_seconds":113503,"freshness":"FRESH","line1":"1 67921U 26036T   26262.91913610  .00017738  00000+0  65251-3 0  9997","line2":"2 67921  43.0011 228.6623 0001860 289.3990  70.6660 15.27581819 33424","mean_motion":15.27581819,"eccentricity":0.000186,"inclination_deg":43.0011,"raan_deg":228.6623,"arg_perigee_deg":289.399,"mean_anomaly_deg":70.666,"bstar":0.00065251,"rev_number":3342,"period_min":94.266636463549,"perigee_km":481.76746970391,"apogee_km":484.31982890545,"semimajor_km":6861.1806493047,"source":"CELESTRAK","updated_at":"2026-09-20T09:00:43.704405Z"}}}